Overview Statistics Trail Chart Weather Telemetry Raw packets
 

This is the latest recevied weather packets stored in our database for station/object KB1WCR. If no packets are shown the sender has not sent any weather packets the latest 10 day(s).

<< 42 43 44 45 46 47 48 >>
Time Temp. Humidity Pressure Rain* Wind** Luminosity Snow
1788120103 21.67° C 85% 1015.4 hPa 0 mm - 58 W/m² -
1788119783 21.11° C 84% 1015.6 hPa 0 mm - 62 W/m² -
1788119480 21.67° C 84% 1015.7 hPa 0 mm - 66 W/m² -
1788119175 21.67° C 84% 1015.7 hPa 0 mm - 78 W/m² -
1788118874 21.67° C 85% 1015.7 hPa 0 mm - 84 W/m² -
1788118569 21.67° C 85% 1015.6 hPa 0 mm - 100 W/m² -
1788118264 21.67° C 86% 1015.6 hPa 0 mm - 127 W/m² -
1788117960 21.11° C 86% 1016 hPa 0 mm - 128 W/m² -
1788117659 21.11° C 85% 1015.9 hPa 0 mm - 120 W/m² -
1788117354 21.11° C 86% 1016 hPa 0 mm - 124 W/m² -
1788117044 21.11° C 87% 1016 hPa 0 mm - 146 W/m² -
1788116740 21.11° C 87% 1016.3 hPa 0 mm - 165 W/m² -
1788116434 21.11° C 87% 1016.3 hPa 0 mm - 190 W/m² -
1788116128 21.11° C 87% 1016.5 hPa 0 mm - 158 W/m² -
1788115823 21.11° C 87% 1016.3 hPa 0 mm - 141 W/m² -
1788115522 21.11° C 87% 1016.4 hPa 0 mm - 148 W/m² -
1788115212 21.11° C 87% 1016.7 hPa 0 mm - 141 W/m² -
1788114912 21.11° C 85% 1016.7 hPa 0 mm - 127 W/m² -
1788114608 21.11° C 85% 1016.5 hPa 0 mm - 145 W/m² -
1788114303 21.67° C 83% 1016.5 hPa 0 mm - 147 W/m² -
1788113999 21.67° C 85% 1016.8 hPa 0 mm - 181 W/m² -
1788113695 21.11° C 86% 1016.9 hPa 0 mm - 166 W/m² -
1788113389 21.67° C 81% 1016.9 hPa 0 mm - 158 W/m² -
1788113088 21.67° C 81% 1017.1 hPa 0 mm - 129 W/m² -
1788112787 21.67° C 83% 1017 hPa 0 mm - 127 W/m² -

* Rain latest hour (hover to see other rain measurements)
** Current wind speed in m/s (hover to see current wind gust speed)